{"data":{"norad_id":59270,"epoch":"2026-09-21T22:26:55.453056Z","epoch_age_seconds":38183,"freshness":"FRESH","line1":"1 59270U 24050S   26264.93536404  .00000638  00000+0  30025-4 0  9998","line2":"2 59270  53.1614 346.6850 0001087  95.5128 264.5999 15.34391190140637","mean_motion":15.3439119,"eccentricity":0.0001087,"inclination_deg":53.1614,"raan_deg":346.685,"arg_perigee_deg":95.5128,"mean_anomaly_deg":264.5999,"bstar":3.0025e-5,"rev_number":14063,"period_min":93.848296926157,"perigee_km":461.98582332856,"apogee_km":463.47302768947,"semimajor_km":6840.866425509,"source":"CELESTRAK","updated_at":"2026-09-22T09:00:48.873708Z"}}